#timestamp,LO_Frequency,Hit,StdDev 
1666666815.6,286047002.0,N
1666666835.4,286047002.7,N
1666666855.3,286046999.9,N
1666666875.1,286046999.7,N
1666666895.8,286047000.4,N
1666666915.7,286047000.2,N
1666666935.5,286047000.4,N
1666666955.4,286047001.0,N
1666666975.2,286047000.5,N
1666666995.0,286047002.8,N
1666666995.9,286047002.8,N
1666667015.8,286047002.7,N
1666667035.6,286047000.2,N
1666667055.4,286047000.1,N
1666667075.3,286047000.3,N
1666667095.1,286047000.9,N
1666667115.9,286046999.3,N
1666667135.7,286046998.5,N
1666667155.5,286046998.1,N
1666667175.4,286047001.2,N
1666667195.2,286046998.2,N
1666667215.1,286046998.5,N
1666667216.0,286046998.5,N
1666667235.8,286046996.5,N
1666667255.6,286046996.5,N
1666667275.5,286046998.8,N
1666667295.3,286046996.5,N
1666667315.1,286046998.8,N
1666667335.9,286046996.8,N
1666667355.7,286046997.2,N
1666667375.6,286046999.6,N
1666667395.4,286046999.1,N
1666667415.2,286046998.4,N
1666667435.1,286046998.7,N
1666667436.0,286046998.7,N
1666667455.8,286046998.0,N
1666667475.7,286046997.5,N
1666667495.5,286046997.7,N
1666667515.3,286046997.2,N
1666667535.2,286046996.7,N
1666667555.0,286046997.4,N
1666667555.9,286046997.4,N
1666667575.8,286046996.7,N
1666667595.6,286046999.6,N
1666667615.4,286046998.7,N
1666667635.3,286046999.3,N
1666667655.1,286046999.4,N
1666667675.9,286046998.9,N
1666667695.7,286046999.4,N
1666667715.5,286047001.1,N
1666667735.4,286047001.1,N
1666667755.2,286047000.4,N
1666667775.0,286047000.0,N
1666667775.9,286047000.0,N
1666667795.8,286047000.5,N
1666667815.6,286047001.2,N
1666667835.5,286046996.9,N
1666667855.3,286046999.0,N
1666667875.1,286046998.8,N
1666667895.9,286047000.6,N
1666667915.7,286047001.7,N
1666667935.5,286047001.3,N
1666667955.4,286047003.9,N
1666667975.2,286047004.1,N
1666667995.1,286047003.1,N
1666667996.0,286047003.1,N
1666668015.8,286047004.0,N
1666668035.6,286047001.4,N
1666668055.5,286047002.5,N
1666668075.3,286047002.3,N
1666668095.1,286047001.3,N
1666668115.9,286047004.3,N
1666668135.7,286047004.1,N
1666668155.6,286047001.6,N
1666668175.4,286047000.3,N
1666668195.2,286046999.1,N
1666668215.1,286046996.8,N
1666668216.0,286046996.8,N
1666668235.8,286046997.1,N
1666668255.6,286046999.3,N
1666668275.5,286046998.8,N
1666668295.3,286046996.9,N
1666668315.2,286046995.0,N
1666668335.0,286046999.5,N
1666668335.9,286046999.5,N
1666668355.7,286046998.8,N
1666668375.6,286046998.1,N
1666668395.4,286046998.5,N
1666668415.3,286047001.1,N
1666668435.1,286047000.2,N
1666668436.0,286047000.2,N
1666668455.8,286047002.6,N
1666668475.7,286047000.9,N
1666668495.5,286047000.2,N
1666668515.3,286047002.7,N
1666668535.2,286047000.1,N
1666668555.0,286047000.2,N
1666668555.9,286047000.2,N
1666668575.8,286046999.8,N
1666668595.6,286047002.2,N
1666668615.4,286047002.0,N
1666668635.3,286047002.7,N
1666668655.1,286047001.2,N
1666668675.9,286047002.8,N
1666668695.7,286047002.3,N
1666668715.5,286047001.5,N
1666668735.4,286047001.4,N
1666668755.2,286047004.1,N
1666668775.0,286047002.2,N
1666668775.9,286047002.2,N
1666668795.8,286047000.4,N
1666668815.6,286047000.5,N
1666668835.5,286047000.0,N
1666668855.3,286047000.1,N
1666668875.1,286047000.2,N
1666668895.9,286047002.1,N
1666668915.7,286047002.1,N
1666668935.5,286047000.1,N
1666668955.4,286046999.8,N
1666668975.2,286047000.7,N
1666668995.1,286047000.0,N
1666668996.0,286047000.0,N
1666669015.8,286047002.4,N
1666669035.6,286047001.3,N
1666669055.5,286047002.6,N
1666669075.3,286047002.5,N
1666669095.1,286047004.3,Y
1666669115.9,286047001.6,P
1666669135.7,286047001.8,P
1666669155.6,286047001.7,P
1666669175.4,286047001.3,Y
1666669195.2,286047000.9,P
1666669215.1,286046998.7,P
1666669216.0,286046998.7,N
1666669235.8,286046998.3,N
1666669255.7,286046998.9,N
1666669275.5,286046998.9,N
1666669295.3,286046996.6,N
1666669315.2,286046999.4,N
1666669335.9,286046996.8,N
1666669355.7,286046997.3,N
1666669375.6,286046996.9,N
1666669395.4,286046999.5,N
1666669415.2,286046997.0,N
1666669435.1,286046999.4,N
1666669436.0,286046999.4,N
1666669455.8,286046998.8,N
1666669475.7,286046998.5,N
1666669495.5,286046999.4,N
1666669515.3,286046998.9,N
1666669535.2,286046998.4,N
1666669555.0,286046998.9,N
1666669555.9,286046998.9,N
1666669575.8,286046998.6,N
1666669595.6,286046999.3,N
1666669615.4,286046998.9,N
1666669635.3,286046998.7,N
1666669655.1,286046998.5,N
1666669656.0,286046998.5,N
1666669675.8,286046998.9,N
1666669695.7,286046999.6,N
1666669715.5,286046997.0,Y
1666669735.4,286046998.8,P
1666669755.2,286047000.4,P
1666669775.0,286047000.3,N
1666669775.9,286047000.3,N
1666669795.8,286047001.1,N
1666669815.6,286046998.9,N
1666669835.5,286046996.6,Y
1666669855.3,286046996.5,P
1666669875.1,286046996.8,N
1666669895.9,286046996.7,N
1666669915.7,286046996.7,N
1666669935.6,286046996.8,N
1666669955.4,286046997.1,N
1666669975.2,286046997.1,N
1666669995.1,286046997.6,N
1666669996.0,286046997.6,N
1666670015.8,286046998.0,N
1666670035.6,286046996.1,Y
1666670055.5,286046998.8,P
1666670075.3,286046998.4,N
1666670095.2,286046999.0,N
1666670115.9,286046999.4,N
1666670135.7,286046998.4,N
1666670155.6,286046997.7,Y
1666670175.4,286046998.1,P
1666670195.2,286047000.8,P
1666670215.1,286046998.4,N
1666670216.0,286046998.4,N
1666670235.8,286046999.5,N
1666670255.7,286046998.7,N
1666670275.5,286046999.2,N
1666670295.3,286046999.1,N
1666670315.2,286046999.4,N
1666670335.0,286046999.0,N
1666670335.9,286046999.0,N
1666670355.8,286046999.0,N
1666670375.6,286046999.0,N
1666670395.4,286046998.5,N
